Location: Apeadero de Los Molinos-Guadarrama
(40.7091°N, 4.0689°W)
Time: 12:37:14
(UTC+00:00)

Cosmos 1812 - Pass Details

Date: 14 May 2021
Orbit: 514 x 521 km, 82.5° (Epoch: 18 June)

Event Time Altitude Azimuth Distance (km) Brightness Sun altitude
Exits shadow 21:37:15 12° 220° (SW) 1,643 5.1 -20.4°
Maximum altitude 21:40:26 32° 283° (WNW) 907 4.3 -20.7°
Drops below altitude 10° 21:43:57 10° 348° (NNW) 1,765 6.3 -21.2°
Sets 21:46:16 0° 358° (N) 2,658 7.2 -21.4°
